GFSGBSN_con_3kmhel_141.txt.gz
Helicity
178 180 183 181 211 216 247 233 130 128 120 91 69 101 70 66 51 56 46 46 35 35 30 29 47 105 67 58 41 37 11 -8 4 32 38 60 71 73 82 67 60 37 58 85 78 68 90
150 162 151 156 163 177 187 173 165 106 121 128 133 103 88 103 57 53 58 59 45 33 38 42 36 82 33 54 63 34 11 17 35 59 59 78 101 97 72 58 76 56 33 26 19 3 48
158 174 188 158 143 154 148 149 160 125 143 146 150 131 110 99 87 73 37 49 61 48 52 59 43 36 24 26 64 42 35 56 65 71 66 112 91 98 99 66 80 29 47 38 28 66 56
157 160 162 160 129 122 127 135 152 164 157 129 133 127 110 121 114 83 72 93 72 74 67 58 46 49 31 33 97 96 40 40 58 25 60 76 83 62 62 50 51 39 62 59 34 -10 29
143 146 158 164 124 117 125 120 133 161 179 167 141 113 152 150 141 119 137 108 89 68 89 58 52 55 21 63 68 56 54 20 53 57 41 43 59 53 74 76 81 78 82 72 95 40 81
130 143 142 150 146 141 114 107 100 116 146 154 159 124 123 169 169 143 173 148 120 131 138 70 60 65 60 56 40 33 56 71 59 48 57 70 75 89 94 122 72 98 109 108 118 117 89
130 124 124 126 129 118 115 114 91 95 121 143 139 128 84 168 232 210 202 100 157 165 100 108 56 88 149 17 102 78 79 90 63 77 70 83 103 67 126 129 129 80 105 110 45 69 150
100 97 98 107 107 107 110 99 86 95 109 132 144 132 80 136 227 225 171 94 81 117 101 26 34 45 55 91 112 69 99 97 119 83 92 148 81 119 114 117 120 118 95 52 105 120 152
92 94 99 91 85 80 75 71 72 78 91 107 136 134 83 190 236 232 200 140 119 43 50 1 104 88 144 145 143 91 114 101 116 106 103 130 86 125 125 103 111 119 92 110 152 104 88
73 68 57 62 70 69 67 69 58 52 84 86 98 127 107 303 185 206 264 156 123 47 126 81 22 76 188 279 260 110 203 151 138 108 88 128 57 136 121 110 111 134 89 211 171 170 145
60 57 54 51 62 62 61 62 66 59 57 88 98 120 226 178 150 148 106 155 63 106 299 119 136 113 103 292 241 41 180 193 140 128 161 140 124 162 132 136 101 122 133 134 105 93 144
71 74 65 62 69 62 68 63 71 70 62 68 85 130 141 90 176 128 139 114 181 255 329 284 167 170 184 203 186 174 290 275 157 116 88 90 106 146 91 96 116 104 89 89 93 143 227
69 64 58 57 72 65 63 65 59 55 54 43 66 110 161 232 199 220 183 270 278 337 173 217 245 220 127 272 133 269 327 285 212 191 138 102 74 132 106 148 78 102 170 207 261 300 168
75 67 65 69 75 69 58 54 43 40 38 61 72 86 99 207 227 311 273 292 294 196 206 154 133 144 150 187 131 209 212 181 70 113 205 140 166 157 187 120 237 125 132 210 271 273 176
78 72 75 76 64 60 61 53 44 36 51 73 64 142 167 240 304 373 385 253 294 231 133 75 98 166 110 165 213 168 171 104 97 101 225 216 159 202 172 114 132 183 148 120 168 122 161
74 71 73 66 62 50 49 35 27 73 80 78 163 227 192 305 395 378 342 217 204 176 86 171 151 150 162 132 166 220 208 132 86 95 173 225 335 252 233 146 62 125 144 176 150 184 157
79 72 74 67 57 51 33 49 35 40 63 121 246 320 301 390 488 462 384 338 214 161 98 134 103 209 166 158 127 272 262 173 148 427 342 177 233 216 274 121 102 131 159 146 157 172 140
79 69 65 60 49 55 86 143 228 242 115 183 509 532 438 787 649 475 398 277 257 119 144 137 135 132 286 145 198 227 239 185 287 352 259 197 189 251 178 77 91 210 182 185 177 161 179
70 66 59 54 41 65 145 179 315 667 721 800 626 605 442 741 475 511 458 314 204 118 109 167 199 155 66 102 234 282 217 146 163 201 178 204 206 273 244 235 138 118 169 159 149 141 118
65 53 46 42 30 44 127 197 291 462 610 866 1033 890 762 390 451 396 464 348 248 166 105 108 123 166 168 190 390 284 280 176 208 216 225 235 246 215 212 194 147 150 150 202 167 138 128
63 31 30 29 28 40 113 193 224 376 529 621 705 948 817 513 434 433 382 304 210 217 152 93 201 248 345 233 261 240 271 274 243 193 217 197 170 143 163 111 146 166 135 199 143 128 99
47 25 17 21 21 31 72 82 243 293 294 254 423 555 451 302 356 393 307 245 120 84 216 170 197 205 224 248 153 223 354 254 163 149 131 142 150 116 96 127 121 106 103 117 92 105 104
26 3 7 16 35 40 36 16 151 265 157 136 103 317 471 221 359 257 164 159 55 60 160 189 173 152 36 87 143 166 214 241 97 124 91 130 150 133 107 133 155 108 74 158 205 137 107
18 1 6 22 27 50 29 -4 111 174 161 64 100 223 250 38 25 105 90 21 -39 111 332 292 253 280 252 222 233 235 142 66 99 77 75 114 103 110 120 134 106 55 106 139 142 115 121
27 4 -5 9 14 29 61 108 161 219 210 43 103 130 201 93 38 90 82 241 315 372 324 477 378 201 221 284 356 390 266 213 38 34 60 87 94 87 122 140 91 40 61 102 128 73 68
30 6 -18 -2 21 4 3 82 88 192 301 136 155 179 182 313 65 281 273 310 324 224 414 332 233 201 234 323 307 317 242 160 141 129 69 90 106 104 129 114 76 49 79 59 103 79 104
21 2 -5 3 14 3 -61 -40 65 156 191 182 98 132 171 293 275 194 219 191 243 413 424 368 304 237 217 307 232 150 124 69 108 107 78 66 92 78 93 132 116 138 155 165 94 63 173
30 15 20 16 11 32 21 1 48 162 208 144 105 77 134 215 317 201 195 141 252 189 336 232 306 308 313 180 97 121 97 45 54 90 130 134 113 79 67 130 114 179 141 107 94 178 164
27 12 20 27 22 35 8 -21 43 152 249 116 139 77 14 213 238 167 231 114 93 111 188 98 115 207 117 90 97 27 88 124 132 81 98 100 98 102 135 152 186 254 164 172 146 158 112

GFSGBSN_con_3kmhel_144.txt.gz
Helicity
180 200 187 189 188 201 217 207 136 144 108 107 89 74 73 39 42 50 54 64 57 56 61 60 58 72 32 57 37 22 15 3 13 34 62 70 97 88 73 79 94 81 73 65 29 32 43
169 173 165 164 171 194 200 208 197 168 113 114 105 94 93 79 74 63 63 46 60 71 68 84 76 58 33 46 29 26 13 35 34 49 79 83 57 65 59 61 78 81 31 27 -5 0 46
153 165 182 188 162 160 154 173 179 172 160 88 97 117 106 114 115 85 65 68 55 73 79 94 75 30 59 24 21 5 41 31 33 51 72 87 55 67 61 59 81 58 49 47 44 42 49
160 159 155 161 119 123 126 127 140 171 173 163 125 101 119 121 112 91 82 66 44 58 76 75 68 44 31 33 29 68 38 43 37 44 60 75 58 46 49 49 72 65 75 78 125 95 40
130 141 154 164 166 116 126 121 121 139 158 162 152 122 99 128 117 105 98 133 76 83 82 56 58 73 31 69 55 33 42 25 40 38 51 50 47 39 59 70 80 94 100 115 142 117 108
124 119 132 141 152 154 129 105 92 100 128 154 153 135 96 96 135 186 182 105 81 47 66 40 113 111 70 54 54 44 43 39 59 66 68 72 72 74 101 107 76 115 113 145 141 147 141
140 109 116 125 134 121 121 123 128 82 100 119 137 133 115 83 162 205 191 118 116 102 109 87 99 95 153 152 98 57 67 96 93 86 73 88 123 62 57 100 79 87 109 121 96 75 143
108 114 106 104 116 126 127 133 134 97 84 110 137 140 134 108 162 193 198 183 148 105 150 93 80 117 67 121 169 116 125 101 123 87 95 133 88 60 112 116 94 103 133 110 77 84 136
107 97 97 106 102 101 94 91 98 96 73 88 114 138 133 141 152 186 207 147 111 48 103 29 117 93 122 118 106 129 156 122 117 108 101 152 87 146 124 129 127 131 132 109 111 141 126
104 105 92 87 89 91 86 77 75 82 71 77 89 123 121 159 143 142 155 82 79 54 165 76 80 85 198 227 139 254 195 213 158 91 99 117 54 69 111 132 121 127 90 133 139 154 148
83 84 78 75 73 77 75 74 76 81 84 69 87 119 108 98 96 83 61 39 86 105 270 99 120 113 150 304 270 138 237 227 219 190 215 156 149 168 208 164 144 122 137 128 129 145 180
71 67 69 58 61 68 70 79 85 82 88 74 81 124 75 170 157 97 74 95 152 276 259 211 91 107 195 145 280 267 218 241 175 182 139 128 149 170 115 111 97 128 135 140 133 178 247
76 70 71 72 69 73 66 58 68 92 91 84 76 91 149 175 157 97 120 176 277 384 316 219 215 142 108 118 111 185 180 208 297 291 168 136 80 146 151 158 143 166 218 229 241 312 299
83 92 77 70 58 67 61 61 70 67 71 64 34 48 114 132 142 160 183 283 357 211 185 203 224 197 175 221 171 134 185 191 249 227 221 184 212 138 197 184 147 148 214 212 210 279 243
91 91 72 69 71 66 70 74 75 76 53 45 37 135 171 171 127 164 292 265 316 246 190 155 107 207 205 214 151 159 224 213 217 185 176 168 172 126 124 226 196 171 231 109 237 184 208
101 90 82 79 76 73 62 43 54 58 52 60 139 158 130 198 150 260 324 247 286 193 234 169 171 162 162 180 186 211 238 169 194 130 145 179 157 150 204 225 193 161 186 277 260 201 185
91 85 88 80 73 59 51 45 61 63 55 137 274 258 143 216 235 363 449 497 317 188 174 183 164 198 155 173 143 165 174 154 35 86 121 102 162 181 261 295 186 183 203 260 198 211 189
91 102 94 75 67 42 67 70 91 73 55 269 398 344 164 308 492 508 472 433 336 250 181 140 113 93 86 204 165 150 162 151 150 202 242 209 226 218 225 109 103 140 169 233 223 192 170
99 112 89 71 58 38 68 74 126 98 210 299 349 404 147 366 527 551 455 397 300 218 176 102 135 116 138 168 246 134 182 221 171 277 270 263 208 228 277 197 186 199 241 283 256 199 138
99 111 85 69 55 32 88 83 136 120 184 396 285 334 490 467 438 397 435 355 288 233 190 152 108 104 108 126 232 224 236 255 229 245 242 232 238 193 146 183 239 229 249 226 220 194 149
85 99 74 54 48 37 79 96 137 160 127 309 390 384 511 475 341 350 330 310 289 261 157 117 66 50 116 142 189 171 273 378 403 281 337 325 199 139 107 118 216 183 232 213 169 141 133
69 82 65 47 41 41 64 100 111 145 104 180 289 313 426 484 520 517 535 313 153 225 188 57 77 74 134 153 247 248 331 413 418 414 378 299 181 94 100 133 212 201 154 144 136 152 157
57 64 47 35 38 48 65 80 93 102 111 164 178 126 230 334 319 338 569 432 157 160 138 53 6 131 134 171 190 177 254 327 354 389 191 111 109 73 105 164 177 155 110 147 174 157 141
65 45 34 28 35 45 62 68 54 47 94 97 131 123 185 240 136 174 330 318 261 168 55 44 73 18 154 189 285 329 170 197 127 78 138 140 119 95 130 170 108 65 131 138 223 165 176
57 44 23 18 33 34 24 31 59 103 93 70 122 91 84 117 28 101 88 109 145 -27 118 97 181 195 150 225 225 242 254 212 119 36 21 89 120 139 130 119 110 76 90 142 157 102 120
52 42 21 17 26 32 20 38 60 122 164 88 64 86 61 57 9 7 83 75 151 85 187 248 324 302 323 347 405 280 265 296 231 153 38 118 138 100 115 122 99 73 91 109 129 76 92
56 43 21 16 23 24 18 40 62 80 193 110 98 122 105 -50 4 53 52 107 256 230 143 302 398 363 293 345 413 356 328 252 204 255 286 150 121 95 112 107 110 111 115 113 121 50 144
64 38 20 11 22 12 0 28 29 49 125 100 64 87 85 50 62 174 296 389 392 261 235 273 528 461 311 284 299 308 265 210 181 91 136 154 128 107 117 81 40 119 135 94 72 152 190
-12 15 21 26 25 36 1 7 39 69 98 56 59 105 56 157 149 170 191 294 185 297 398 541 323 356 297 283 258 212 192 205 174 180 109 117 113 103 141 93 123 116 109 145 124 153 144

GFSGBSN_con_3kmhel_150.txt.gz
Helicity
177 178 170 165 178 188 186 164 110 80 86 76 85 82 78 77 90 79 88 84 92 77 65 80 85 89 22 66 38 49 30 34 37 40 59 67 76 71 105 91 85 69 72 63 54 61 37
174 181 174 166 178 185 203 203 195 205 186 116 113 115 96 89 89 78 93 80 83 87 59 42 45 71 -4 66 43 44 40 40 54 70 81 83 83 65 90 103 93 70 43 41 41 45 52
177 178 163 131 143 174 173 182 198 188 188 184 157 124 120 106 89 70 59 53 59 51 46 63 63 2 -21 32 65 78 56 42 36 48 58 65 67 88 72 97 78 62 28 59 47 60 70
150 163 184 207 180 166 187 172 153 156 149 149 153 138 86 95 99 88 73 60 65 46 52 36 34 -11 -27 40 55 51 66 58 43 47 54 57 68 68 74 70 83 74 65 84 98 80 149
135 118 107 134 160 124 128 144 142 128 148 166 178 182 169 121 112 112 88 91 85 78 64 43 30 36 -14 72 57 74 66 89 94 65 70 54 73 86 99 104 109 103 92 78 120 147 151
97 96 115 115 129 141 107 123 121 132 156 177 179 175 165 146 117 119 122 106 98 97 88 70 82 71 74 74 62 79 64 95 106 104 104 107 125 127 125 131 94 78 91 89 106 144 218
86 94 106 114 125 142 146 125 118 103 101 162 181 169 154 162 151 141 138 122 128 92 104 110 97 81 91 94 70 98 73 110 113 119 104 114 137 95 83 89 127 119 111 112 103 143 158
95 116 105 115 116 131 127 143 157 165 128 151 158 150 141 117 117 139 151 140 147 98 86 63 59 115 100 116 124 123 68 109 111 121 110 148 123 85 115 149 130 119 115 87 92 121 163
116 112 103 96 107 108 120 125 134 144 134 111 138 145 119 119 121 155 147 141 117 72 61 27 89 136 143 190 160 154 129 122 86 86 93 142 106 104 109 166 185 148 134 119 125 164 185
109 103 108 100 99 126 128 117 114 128 137 98 119 122 99 88 164 127 133 111 95 66 98 -4 40 67 118 179 180 170 210 205 165 96 90 82 72 105 99 123 144 141 111 108 137 162 147
102 101 106 105 132 134 127 123 119 115 103 79 85 70 76 102 93 107 86 61 56 89 186 102 126 53 41 39 113 64 126 288 212 201 188 154 105 74 97 111 103 110 110 118 159 191 174
107 98 98 116 125 116 118 119 130 120 121 95 70 79 93 121 110 85 63 69 100 228 168 210 119 87 65 8 70 90 96 134 127 182 203 155 131 98 76 99 118 160 242 270 245 211 230
118 102 92 103 108 113 109 114 128 117 122 129 72 66 92 100 141 117 100 141 246 219 202 138 89 86 80 74 75 117 111 133 149 178 175 163 132 168 172 180 196 273 301 277 286 340 261
108 101 107 107 118 120 113 110 117 100 100 139 115 84 112 103 135 134 171 263 236 188 195 253 209 116 22 41 50 65 126 127 115 209 195 120 137 77 196 221 245 224 275 292 198 217 182
106 99 105 106 118 110 101 96 96 90 100 139 171 158 149 94 102 156 226 273 234 187 158 197 164 104 116 114 113 116 113 148 133 174 201 138 139 97 98 145 199 261 242 218 215 205 202
89 114 111 106 112 96 94 86 83 76 95 128 180 177 134 54 102 195 246 229 204 190 210 149 101 92 96 91 153 187 150 123 108 142 238 152 164 91 96 109 156 158 208 293 300 262 236
89 97 114 116 121 92 87 73 72 75 78 116 194 181 88 95 163 234 264 250 208 186 196 142 142 134 128 118 110 160 166 157 121 92 130 128 215 151 130 93 125 206 263 324 256 288 268
80 77 95 98 124 92 76 71 53 38 65 107 188 167 56 132 195 257 213 306 175 173 158 170 185 186 179 177 184 148 130 151 155 92 80 113 127 113 85 62 133 175 159 227 227 202 238
117 101 104 132 116 91 74 57 29 35 80 181 132 148 87 131 219 225 200 125 114 157 205 184 192 200 201 170 184 155 112 63 60 55 75 54 132 92 87 105 113 126 182 153 223 211 226
148 135 99 126 133 98 74 52 31 43 46 134 173 157 173 132 231 177 124 115 119 177 100 135 229 186 167 151 177 160 122 41 43 106 99 126 169 167 124 51 137 160 177 169 166 165 192
96 104 123 117 123 89 71 53 35 53 46 127 181 174 202 221 249 171 182 196 108 168 159 148 142 128 188 142 102 111 83 93 84 103 188 226 241 188 123 87 112 133 129 75 109 115 133
115 116 113 134 131 96 79 52 32 70 107 202 243 245 234 224 230 183 178 185 135 175 179 182 159 191 117 80 107 96 52 52 53 78 126 160 143 198 111 131 97 39 43 14 62 89 141
106 119 122 135 122 103 81 62 44 69 142 238 252 255 203 186 239 215 215 190 136 164 145 165 267 196 133 83 56 57 39 14 44 54 130 188 221 172 126 138 171 81 122 92 156 198 215
117 111 118 110 135 99 72 56 49 71 93 210 221 215 198 180 174 186 184 140 147 164 157 139 101 187 317 95 -10 -3 14 5 43 62 123 158 160 180 163 207 229 176 150 144 188 191 182
89 86 94 112 123 96 66 51 44 53 76 156 158 205 157 136 144 103 85 106 87 71 55 95 164 165 110 83 85 33 99 95 114 126 148 215 223 160 226 220 197 152 96 133 147 103 134
82 87 93 114 130 95 75 56 48 61 70 138 110 124 142 130 103 91 45 73 73 79 65 133 95 -34 -23 83 92 80 65 84 44 95 217 231 229 220 217 215 190 100 74 65 137 51 118
81 77 98 120 109 87 66 58 48 67 45 103 99 60 107 103 93 85 25 8 80 88 117 71 40 33 99 69 156 134 89 82 93 48 77 202 221 167 137 72 55 55 15 77 74 20 154
80 78 101 103 87 68 50 37 29 29 36 81 94 90 119 110 57 56 55 7 54 108 92 44 89 77 119 71 102 104 73 52 34 92 158 179 167 150 79 25 -4 73 135 55 40 90 129
78 95 102 101 83 64 49 28 43 20 -1 21 93 54 89 100 103 71 30 21 66 47 91 148 114 107 121 152 128 119 87 103 116 102 75 75 171 124 141 101 77 108 73 107 96 117 84

GFSGBSN_con_3kmhel_153.txt.gz
Helicity
237 231 214 210 189 180 163 100 73 73 75 75 86 69 94 70 65 71 60 69 75 94 85 78 85 93 9 69 59 33 20 29 19 11 29 45 68 69 63 69 80 64 77 83 56 69 109
262 188 138 145 134 129 139 151 157 175 148 103 101 88 94 93 71 59 56 62 66 54 68 66 34 22 -3 72 40 41 33 33 44 48 62 75 70 72 83 86 97 84 77 72 67 89 126
152 137 161 160 147 150 161 149 138 145 154 169 173 123 112 89 92 103 80 52 53 59 73 67 42 -24 29 25 49 39 41 34 29 34 47 57 59 74 79 86 101 99 82 84 68 85 141
150 172 185 157 116 142 174 152 144 154 157 170 175 207 145 126 110 93 96 64 57 62 68 74 49 23 11 42 39 47 59 69 46 44 43 57 64 64 74 79 112 105 96 93 110 106 122
50 49 79 143 119 132 142 156 127 156 165 172 180 173 146 115 100 116 100 72 80 70 52 54 57 66 25 82 59 87 84 100 88 69 76 67 72 78 76 91 99 125 108 98 128 143 123
57 58 98 120 121 141 111 116 112 126 147 166 156 157 148 132 127 111 98 94 87 75 90 72 101 87 80 76 57 85 63 97 114 92 91 93 94 97 86 95 90 80 111 125 143 142 170
85 76 88 114 123 138 149 104 120 133 135 149 160 155 150 139 109 112 109 84 85 71 109 83 119 102 94 97 79 73 78 89 93 135 128 103 113 88 69 86 111 102 114 119 118 171 186
108 106 106 108 124 138 157 152 156 150 99 125 134 129 111 108 119 116 129 109 99 92 75 40 37 69 67 111 136 125 101 112 122 134 132 128 106 82 55 80 86 112 125 106 96 148 140
75 92 95 88 89 100 113 119 135 125 133 106 123 121 96 107 126 151 118 120 117 91 70 64 119 135 109 118 132 105 154 175 155 164 111 107 94 93 49 76 109 120 129 109 98 99 139
91 89 84 74 79 86 103 103 112 120 119 91 107 102 108 118 153 128 128 106 99 61 111 51 91 101 76 102 120 70 134 178 198 125 140 116 104 86 106 104 73 111 87 88 108 124 132
100 103 108 100 99 98 117 131 102 114 124 104 99 98 122 139 131 123 99 70 61 85 152 112 90 26 24 17 72 86 48 125 123 147 158 164 137 133 123 100 129 109 86 92 120 149 143
100 104 102 108 104 123 141 130 122 116 128 101 79 118 124 141 134 99 69 70 103 213 214 209 113 93 85 42 67 53 70 95 65 72 100 99 131 131 112 97 54 102 166 181 189 178 175
116 96 105 115 120 142 124 111 111 113 123 92 92 90 107 126 146 101 100 150 256 259 211 160 142 92 63 64 43 54 69 87 103 130 117 108 73 106 139 110 160 117 155 216 192 216 226
104 79 98 117 133 141 113 107 120 121 132 138 80 90 109 125 134 115 160 242 271 208 232 202 148 107 78 55 45 52 96 97 80 143 112 134 133 49 58 71 131 137 154 221 138 183 185
112 109 106 94 113 121 108 128 132 128 136 141 116 141 144 110 140 155 222 260 207 176 176 173 175 118 111 80 57 64 60 85 66 91 86 87 98 69 29 64 53 141 217 120 185 249 309
104 118 117 107 119 124 118 137 128 134 138 148 210 177 129 90 147 220 248 221 217 184 214 180 120 87 83 72 71 82 60 79 57 62 71 110 101 49 43 71 80 54 99 177 246 305 262
145 134 135 106 126 152 122 146 116 103 122 145 227 186 127 106 182 261 247 228 201 196 213 149 120 121 77 73 69 84 112 101 73 84 77 117 128 108 147 101 104 112 106 141 173 195 254
146 141 144 97 148 138 113 111 101 114 119 212 225 178 136 156 257 257 205 181 172 186 151 135 137 115 96 78 81 97 107 97 90 90 136 112 127 114 47 36 84 95 141 143 160 216 197
165 130 146 125 135 120 97 95 92 76 111 234 195 223 168 192 259 227 176 133 169 184 176 162 121 84 98 102 113 97 125 129 112 67 116 81 140 140 92 48 29 90 73 164 208 178 159
198 177 157 185 151 135 98 87 67 52 48 185 225 236 254 178 185 120 107 78 100 103 74 79 107 124 110 93 126 129 126 110 102 78 62 49 79 105 92 90 67 49 32 139 182 207 223
161 186 170 201 151 122 84 79 57 53 21 200 226 199 182 159 123 113 122 102 68 85 51 51 62 26 81 111 83 95 108 130 78 64 68 87 67 69 94 127 104 72 72 86 203 135 185
63 145 189 197 200 138 81 86 59 52 69 166 225 221 202 137 48 59 51 91 44 91 95 65 67 112 84 113 139 168 102 101 101 104 95 85 58 75 30 40 38 116 71 103 150 94 100
23 89 171 206 188 157 88 64 55 52 115 241 199 204 135 92 137 98 130 110 69 58 70 74 81 105 110 252 209 151 84 40 20 38 83 58 61 92 72 16 123 91 169 208 121 221 204
80 120 169 174 177 140 89 55 70 70 99 205 267 228 159 115 110 94 75 29 41 79 115 107 82 86 164 80 110 108 49 36 24 18 50 44 32 62 53 30 117 110 106 111 132 140 198
232 209 172 144 135 122 87 74 84 81 75 181 183 190 183 127 94 71 69 93 80 54 57 78 77 115 89 83 119 137 90 72 17 14 59 94 67 107 102 44 67 43 68 103 118 45 125
205 175 98 124 110 102 70 64 89 76 80 177 122 161 193 135 69 66 91 80 78 51 50 94 51 2 108 73 103 148 150 100 76 65 65 97 77 135 101 90 41 88 143 83 61 22 58
56 62 67 56 82 83 68 62 75 72 71 159 122 140 150 106 66 103 75 72 89 56 54 52 44 77 106 107 173 118 82 98 58 41 60 122 171 175 77 87 127 109 97 56 92 29 79
55 26 60 83 85 82 76 71 56 54 62 167 139 96 155 135 67 104 84 40 39 97 62 32 84 88 130 106 106 101 109 84 78 71 73 55 71 164 223 189 10 129 119 36 28 44 55
28 67 78 73 86 90 72 58 50 45 43 125 125 92 121 125 99 97 49 8 19 40 36 58 84 56 70 48 44 85 77 106 85 54 123 93 113 41 72 59 87 70 60 73 45 74 45

GFSGBSN_con_3kmhel_159.txt.gz
Helicity
85 85 82 95 88 89 79 75 72 72 82 73 66 55 44 32 30 42 37 24 22 20 15 35 28 58 24 44 68 79 26 10 0 28 45 55 55 65 50 64 36 10 59 58 90 55 102
162 110 101 97 107 106 90 77 80 79 88 89 80 72 43 47 36 36 44 42 43 31 31 35 37 40 31 28 92 58 50 37 46 39 44 54 65 61 33 44 46 127 65 43 58 44 74
251 253 252 287 247 249 225 230 193 179 139 105 87 80 60 52 49 53 53 40 44 41 53 32 33 33 20 11 76 64 53 57 43 48 42 51 37 38 80 42 93 61 40 34 48 47 75
281 319 236 178 138 179 284 177 203 133 129 89 91 90 82 80 70 61 55 48 42 40 46 30 27 25 25 94 54 34 27 38 42 44 57 45 34 34 40 68 20 33 46 45 43 99 82
174 124 177 196 172 187 112 123 106 92 137 167 154 125 135 109 99 86 68 52 46 46 38 22 20 31 18 91 27 42 31 43 53 45 56 49 29 46 41 36 50 60 54 50 95 86 104
29 54 176 54 90 64 87 82 102 97 86 113 115 124 130 126 119 83 70 48 53 44 22 16 44 56 45 78 81 29 29 32 30 38 33 38 51 47 49 57 52 84 70 59 57 127 70
-60 -19 -52 -45 35 24 48 59 78 46 95 82 106 109 106 108 88 75 65 33 21 -24 20 18 133 81 112 119 70 63 80 56 55 54 26 48 50 47 13 100 146 123 159 86 72 115 153
87 70 71 91 91 59 87 75 78 104 107 85 103 112 123 120 113 88 75 65 142 150 91 28 38 51 102 117 114 73 106 76 57 40 49 113 56 28 182 176 94 81 84 84 72 74 101
65 75 55 80 89 85 93 109 106 91 109 105 117 121 121 128 134 117 77 96 101 72 62 63 69 83 80 85 86 48 109 62 101 87 82 90 101 146 197 109 95 90 94 106 108 56 69
84 78 85 87 80 111 113 135 148 123 106 110 117 126 131 132 117 103 74 75 65 53 84 35 49 126 112 110 119 92 82 93 134 132 105 122 122 186 167 109 100 120 72 106 135 127 141
59 70 90 95 95 99 104 135 166 165 161 150 124 150 130 43 232 100 195 82 71 56 204 125 108 88 68 90 134 92 66 67 58 85 126 162 136 116 147 97 155 187 200 231 184 150 134
72 63 76 88 94 97 108 119 147 152 142 160 138 126 133 154 155 171 91 81 89 136 261 125 100 85 98 68 107 119 117 55 72 64 40 32 45 96 50 72 111 114 157 107 117 143 203
84 86 85 77 75 104 108 98 118 113 131 128 107 117 122 161 183 103 94 131 195 301 181 139 142 130 115 130 157 136 127 116 104 125 72 34 52 52 92 106 69 76 131 166 149 126 130
102 63 99 96 80 76 107 106 106 89 103 117 111 111 136 163 124 117 137 239 224 192 148 256 145 126 130 109 113 83 85 83 65 112 102 124 136 90 97 73 104 109 62 133 159 146 94
113 62 47 104 113 108 103 126 100 92 95 109 121 118 125 126 127 141 245 282 233 190 251 186 177 147 180 194 214 152 116 104 115 87 135 203 154 84 105 54 57 58 40 19 66 66 96
75 121 49 94 133 154 137 129 99 81 97 116 145 152 143 129 142 173 286 252 238 348 298 220 144 129 136 139 136 153 120 122 115 81 62 107 170 79 56 67 32 32 17 83 67 73 61
84 63 122 32 167 173 183 140 100 89 132 95 163 219 143 140 145 196 324 309 278 243 218 209 148 226 143 166 107 109 122 108 71 83 67 65 80 65 46 42 40 31 64 56 41 74 120
84 95 95 96 190 195 167 170 114 106 138 207 208 267 99 146 235 200 233 197 231 130 195 215 212 158 128 118 105 87 96 91 113 78 61 41 128 87 45 40 33 37 44 35 116 101 96
78 87 112 164 281 205 145 156 138 104 147 419 283 230 156 191 224 190 167 175 145 174 131 121 121 114 90 78 112 64 91 70 121 85 107 128 97 76 45 39 17 67 12 25 24 54 64
81 93 94 110 72 196 192 136 141 105 126 269 300 235 212 181 141 143 110 127 131 117 125 118 113 81 85 76 87 114 82 109 117 84 202 172 97 117 115 90 89 72 52 31 41 77 91
80 90 110 98 135 230 173 151 136 104 125 234 365 283 198 256 227 184 138 108 70 70 67 64 82 47 53 88 70 56 56 59 64 64 64 106 62 83 58 58 52 20 -1 6 23 26 58
61 82 114 69 184 132 164 179 149 102 149 275 421 431 266 210 50 141 113 82 62 38 62 79 81 57 70 62 65 121 153 150 121 125 101 70 55 44 37 23 17 28 32 14 20 12 25
49 42 100 6 16 68 177 176 157 112 181 308 302 232 134 152 89 67 64 64 64 83 80 59 57 68 74 52 86 161 150 141 131 127 100 98 133 117 50 9 3 23 65 15 -1 -19 -13
31 51 83 81 -16 67 154 160 150 96 121 213 271 216 139 118 91 71 77 51 60 44 42 53 60 61 47 119 146 86 78 87 84 83 81 76 120 91 31 17 52 43 66 45 62 8 22
6 57 103 79 59 203 168 154 121 96 91 205 274 257 190 123 67 44 55 74 63 71 68 58 41 45 54 102 66 56 55 44 58 61 91 64 40 56 36 27 32 -2 16 69 76 -1 1
-14 100 67 37 55 329 124 138 127 101 116 178 166 209 216 157 102 96 72 54 66 69 55 38 17 36 63 113 101 116 104 69 81 49 80 38 10 41 8 13 26 1 129 121 82 -40 96
54 38 69 55 90 187 90 87 86 83 43 144 136 140 210 165 151 88 69 63 47 66 72 64 67 77 95 156 109 65 41 6 14 58 75 69 12 37 32 35 37 15 79 87 14 18 72
23 95 51 42 308 152 101 77 95 79 41 74 122 63 135 153 137 112 95 80 50 38 36 69 88 90 109 105 91 29 28 35 33 24 95 72 54 45 45 18 -14 75 150 16 84 69 63
159 247 97 237 217 114 62 82 99 85 53 42 122 65 61 95 101 125 73 37 37 79 96 60 75 77 38 59 32 26 21 35 8 -8 71 71 36 31 63 81 72 70 62 96 63 36 19